Lapse_Rate
7.3 6.5 6.5 6.5 6.5 6.5 6.5 6.5 6.5 6.5 6.5 6.5 6.5 6.5 6.5 7.2 7.5 7.4 7.6 7.8 8.0 8.2 8.8 9.1 9.1 9.2 9.3 9.3 9.2 9.4 9.3 9.3 9.6 9.4 9.2 9.3 9.2 9.4 9.7 9.9 9.3 8.0 5.1 4.4
6.5 6.5 6.5 6.5 6.5 6.5 6.5 6.5 6.5 6.5 6.5 6.5 6.5 6.5 6.5 6.5 6.9 7.6 7.6 7.7 7.8 8.2 8.4 8.7 9.0 9.0 9.1 9.2 9.2 9.1 9.2 9.3 9.1 9.5 9.4 9.5 9.3 8.8 9.2 9.2 9.3 6.1 5.4 5.1
6.5 6.5 6.8 6.5 6.5 6.5 6.5 6.5 6.5 6.5 6.5 6.5 6.5 6.5 6.5 6.5 7.2 7.6 7.9 7.8 8.2 8.1 8.2 8.5 8.6 8.8 8.9 9.0 9.0 9.2 9.2 7.3 5.6 6.8 9.2 9.5 9.5 9.4 9.4 9.0 8.6 8.0 6.3 6.6
6.5 6.7 6.5 6.5 6.5 6.5 6.5 6.5 6.5 6.5 6.5 6.5 6.5 6.5 6.5 6.5 6.5 6.5 7.3 7.6 7.9 8.2 8.4 8.5 8.6 8.7 8.9 9.0 9.3 9.4 9.4 9.3 6.5 5.3 7.2 8.4 9.0 8.8 9.1 8.8 8.4 8.3 5.8 5.0
6.5 6.5 6.5 6.5 6.5 6.5 6.5 6.5 6.5 6.5 6.5 6.5 6.5 6.5 6.5 6.5 6.5 6.5 7.0 7.6 8.0 8.3 8.5 8.5 8.7 8.8 9.0 9.0 9.1 9.2 9.4 9.5 9.5 8.8 7.0 6.6 7.9 9.1 8.9 9.4 9.0 7.5 7.1 4.6
6.5 7.3 6.6 6.5 6.5 6.5 6.5 6.5 6.5 6.5 6.5 6.5 6.5 6.5 6.5 6.5 6.5 6.5 7.0 7.8 8.1 8.4 8.6 8.8 9.0 9.1 9.1 9.2 8.7 6.8 8.8 9.4 9.4 9.4 8.8 7.5 6.6 7.4 8.8 8.8 6.5 7.9 9.1 9.4
6.5 6.5 6.6 7.0 6.5 6.5 6.5 6.5 6.5 6.5 6.5 6.5 6.5 6.5 6.5 6.5 6.5 6.6 6.7 7.2 7.7 8.2 8.6 8.8 9.0 9.0 9.0 8.9 8.4 9.0 9.1 9.1 9.4 9.3 9.3 9.1 9.1 9.0 8.7 9.1 9.3 9.2 8.9 7.5
6.5 6.5 6.5 6.5 6.5 6.5 6.5 6.5 6.5 6.5 6.5 6.5 6.5 6.5 6.5 6.5 7.1 7.2 7.3 7.5 7.9 8.0 8.2 8.4 8.6 8.8 8.8 8.9 8.0 6.1 5.1 5.1 7.7 9.0 9.1 9.4 9.3 9.4 9.4 9.3 9.3 9.5 9.5 9.6
6.5 6.5 6.5 6.5 6.6 6.5 6.5 6.5 6.5 6.5 6.5 6.5 6.5 6.5 6.5 6.5 6.5 7.0 7.0 7.3 7.6 7.9 8.4 8.2 8.6 8.6 8.9 8.3 7.4 7.1 7.1 5.8 5.0 4.2 4.3 3.0 3.9 7.0 8.7 9.1 9.2 9.4 9.4 9.5
6.5 6.5 6.5 6.5 6.7 6.7 6.5 6.5 6.5 6.5 6.5 6.5 6.5 6.5 6.5 6.5 6.5 6.5 6.8 7.0 7.4 7.9 8.1 8.4 8.8 8.7 8.3 7.8 7.2 6.4 7.2 7.2 6.3 5.5 4.6 3.8 2.9 2.4 2.6 3.0 3.4 6.1 8.1 8.7
6.5 6.5 6.5 6.5 6.5 6.5 6.5 6.5 6.5 6.5 6.5 6.5 6.5 6.5 6.5 6.5 6.5 6.5 6.8 7.1 7.6 7.7 8.2 8.3 8.5 8.5 8.3 7.4 7.2 6.2 6.5 6.8 6.6 6.2 5.5 5.3 5.2 5.1 4.5 2.4 1.8 1.4 1.7 2.6
6.5 6.5 6.5 6.5 6.5 6.5 6.5 6.5 6.5 6.5 6.5 6.5 6.5 6.5 6.5 6.5 6.7 7.0 7.0 7.5 7.6 8.1 8.2 8.3 8.5 8.5 7.8 7.1 6.6 6.6 5.8 5.9 6.3 6.6 5.9 5.2 4.7 4.8 4.9 4.7 4.3 3.9 2.6 1.7
6.5 6.5 6.5 6.5 6.5 6.5 6.5 6.5 6.5 6.5 6.5 6.5 6.5 6.5 6.5 6.8 6.8 7.2 7.2 7.5 7.8 8.1 8.2 8.2 7.8 8.2 8.5 7.8 6.7 6.4 6.4 5.9 5.9 6.8 6.8 5.5 5.1 5.0 4.6 4.0 5.0 4.3 4.6 4.7
6.9 6.5 6.5 6.5 6.5 6.5 6.5 6.5 6.5 6.5 6.5 6.5 6.5 6.5 6.5 6.5 6.5 7.0 7.4 7.7 7.9 8.0 8.1 8.3 8.6 8.7 8.6 8.4 7.6 6.7 6.6 6.4 5.8 6.1 5.8 5.3 5.3 5.6 5.4 4.9 4.1 4.0 3.5 3.8
6.5 6.5 6.5 6.5 6.5 6.5 6.5 6.5 6.5 6.5 6.5 6.5 6.5 6.5 6.5 6.5 6.5 7.2 7.6 7.8 7.8 8.0 8.2 8.2 8.5 8.5 8.8 8.8 9.0 8.9 7.7 6.5 6.2 6.0 6.6 6.3 5.6 5.6 4.8 4.3 4.6 4.6 4.1 3.8
6.6 6.5 6.5 6.5 6.5 6.5 6.5 6.5 6.5 6.5 6.5 6.5 6.5 6.5 6.6 7.2 7.5 7.4 7.5 7.7 7.7 7.9 8.2 8.5 8.6 8.8 8.8 8.9 8.8 9.1 9.2 9.0 8.1 6.6 6.5 6.4 6.1 5.8 5.3 5.0 5.1 5.7 5.7 5.6
6.5 6.5 6.5 6.5 6.5 6.5 6.5 6.5 6.5 6.5 6.5 6.5 6.5 6.5 6.8 6.5 7.0 7.3 7.6 7.8 7.9 8.1 8.3 8.5 8.7 8.9 9.0 9.2 9.1 9.0 9.1 9.5 9.2 9.1 9.2 8.3 6.5 6.0 5.5 5.6 5.5 4.8 4.8 5.8
6.5 6.5 6.5 6.5 6.5 6.5 6.5 6.5 6.5 6.5 6.5 6.5 6.5 6.5 6.8 7.1 7.6 7.9 8.2 8.1 8.1 8.3 8.5 8.7 9.0 9.1 9.3 9.4 9.5 9.4 9.5 9.4 9.3 9.2 9.2 9.1 8.5 7.0 2.6 4.8 4.1 2.7 3.5 4.4
6.8 6.5 6.5 6.5 6.5 6.5 6.5 6.5 6.5 6.5 6.5 6.5 6.5 6.6 7.1 7.5 7.8 7.5 8.3 8.5 8.5 8.6 8.9 9.0 9.3 9.3 9.4 9.4 9.5 9.5 9.5 9.4 9.2 9.2 9.2 9.3 9.0 8.9 8.0 4.2 2.7 2.4 3.2 2.4
6.5 6.5 6.5 6.5 6.5 6.5 6.5 6.5 7.3 6.9 6.5 7.0 7.0 6.8 7.0 7.3 6.5 6.5 8.3 8.6 8.7 8.9 9.0 9.1 9.2 9.4 9.4 9.4 9.6 9.4 9.3 9.4 9.2 9.2 9.1 9.3 9.5 9.3 9.1 8.6 7.4 5.7 6.4 6.2
6.5 6.5 6.5 6.5 6.5 6.5 6.5 7.0 7.5 6.5 6.5 7.2 7.4 7.3 7.3 6.7 7.4 8.1 8.6 8.7 9.0 9.0 9.0 9.3 9.3 9.3 9.4 9.5 9.5 9.2 9.2 9.1 9.4 9.5 9.5 9.4 9.5 9.4 9.4 9.2 9.0 7.8 7.9 8.6
6.5 6.5 6.5 6.5 6.5 6.5 7.2 6.9 6.5 6.8 7.5 7.5 7.6 7.6 7.5 7.8 8.0 8.3 8.5 8.6 8.8 8.9 9.1 9.2 9.2 9.2 9.4 9.4 9.3 9.2 9.1 9.1 8.8 7.4 7.2 7.6 8.4 7.7 8.5 7.1 5.8 5.2 5.6 5.5
6.5 6.5 6.5 6.5 6.5 6.9 7.7 7.2 7.9 7.9 7.5 7.7 7.7 8.0 8.0 7.9 8.1 8.3 8.5 8.7 8.8 8.9 9.0 9.2 9.2 9.0 9.2 9.0 8.9 8.4 8.3 8.6 8.5 8.6 8.8 8.6 8.0 7.8 7.7 6.9 6.8 6.3 5.7 5.3
6.5 7.0 6.5 6.5 6.6 6.9 7.5 7.9 8.2 8.2 8.0 8.2 8.4 8.3 8.3 8.1 8.3 8.4 8.6 8.8 8.9 8.9 8.8 9.1 9.1 8.7 8.5 8.9 8.9 8.8 8.9 9.2 8.9 8.9 8.8 8.6 8.4 8.2 7.8 7.7 6.8 7.1 7.5 7.4
6.7 6.7 6.5 6.5 6.7 7.2 7.6 8.0 8.2 8.2 8.4 8.3 8.5 8.4 8.3 8.4 8.3 8.5 8.6 8.7 8.8 8.8 8.9 8.9 8.6 7.7 8.6 8.8 8.8 9.0 8.8 9.2 9.1 9.1 9.1 8.9 8.6 8.4 7.8 7.5 7.4 7.1 7.2 7.7
7.2 6.5 6.5 6.5 7.1 7.1 7.2 8.0 8.4 8.2 8.2 8.4 8.3 8.3 8.5 8.5 8.5 8.7 8.7 8.8 8.7 8.5 8.5 8.5 8.4 8.0 8.0 8.2 8.3 8.7 8.5 9.1 8.9 8.9 8.8 8.7 8.1 7.9 7.5 7.0 7.0 6.9 7.0 6.9
Wind_Speed
4 8 11 11 8 9 10 13 16 18 18 18 21 22 21 21 21 24 22 19 18 18 16 17 13 10 15 15 17 21 22 21 16 15 15 14 15 14 13 12 21 21 22 24
5 11 9 9 9 11 13 16 17 14 14 19 23 25 23 21 23 22 22 19 16 17 18 16 16 11 11 15 17 19 21 22 19 15 14 14 14 14 13 12 16 24 24 24
10 8 8 7 11 15 14 14 14 16 20 18 17 19 8 8 16 19 19 9 14 13 13 13 14 13 11 14 18 19 21 20 18 17 12 12 12 13 13 14 14 16 23 23
6 5 8 13 11 14 11 11 13 14 12 10 11 8 7 15 19 12 11 10 10 12 11 10 9 9 9 10 13 17 18 20 20 18 15 20 16 16 15 13 14 15 21 21
4 6 9 11 14 9 7 14 13 15 14 11 7 4 6 12 11 19 17 14 14 13 13 13 13 9 8 5 7 12 16 17 17 19 18 14 18 12 10 11 16 16 15 19
5 2 5 8 15 2 11 10 11 10 6 5 4 10 12 7 8 12 19 19 20 18 18 18 16 17 14 13 7 4 10 15 16 17 20 20 19 17 12 14 10 9 11 11
3 5 2 10 12 1 13 13 5 4 2 3 4 3 5 9 15 15 17 20 20 22 23 22 24 22 21 20 19 12 3 7 9 15 17 19 19 15 15 15 11 13 11 12
5 6 8 10 7 10 8 5 6 5 9 8 13 10 5 12 16 19 17 18 17 19 21 24 25 22 22 22 22 19 19 18 14 8 9 13 14 11 11 12 11 11 10 11
3 3 1 3 6 12 6 8 8 5 10 6 6 1 5 19 18 19 20 21 21 18 20 23 22 23 22 21 21 20 19 18 19 18 15 14 14 8 9 11 11 11 11 10
2 3 2 3 5 6 5 8 2 2 5 3 2 6 9 14 13 13 15 18 19 20 18 18 19 19 19 20 18 19 20 19 17 15 13 11 11 12 11 11 10 9 10 12
1 2 2 4 4 8 6 5 3 3 4 4 3 4 4 9 9 7 14 15 18 18 18 17 15 17 18 17 17 17 18 19 17 15 14 13 12 12 10 10 9 10 10 11
3 2 3 1 1 2 3 6 5 4 4 3 4 4 10 4 4 7 5 11 11 16 16 17 15 15 13 15 17 16 16 17 16 15 15 14 13 11 11 9 9 9 9 8
1 2 2 5 4 5 1 6 6 3 2 5 3 3 8 7 9 8 10 9 7 10 12 10 15 16 14 13 13 14 15 15 14 15 15 14 13 13 12 11 11 8 8 6
2 2 3 3 2 3 3 7 5 1 3 3 5 6 6 8 9 9 11 12 10 6 8 11 9 11 12 13 12 12 12 13 13 14 13 13 12 12 13 11 9 12 8 7
2 3 2 4 5 6 8 7 5 3 2 3 5 2 3 6 8 10 10 10 10 11 12 11 12 11 11 12 13 12 10 11 11 12 13 12 12 12 12 12 12 10 9 9
2 3 2 3 3 6 6 5 4 3 5 4 3 2 3 4 8 10 12 11 11 12 13 14 12 12 12 12 11 12 13 13 11 12 11 12 12 12 12 12 13 13 12 11
5 4 4 2 3 5 7 12 9 4 4 3 5 4 5 9 11 13 13 13 12 14 13 12 12 12 11 12 11 12 12 12 12 12 12 12 13 13 13 12 12 11 12 12
6 6 2 1 4 5 3 7 5 6 4 5 3 3 6 10 12 10 9 14 14 12 13 13 12 13 13 12 12 14 14 14 12 11 10 11 13 13 8 13 12 10 10 11
8 6 3 3 7 6 9 12 12 9 8 8 5 5 7 9 12 4 9 11 12 13 13 12 12 13 13 13 13 13 13 13 12 11 10 11 12 12 12 8 7 5 9 8
8 5 4 3 4 4 4 9 9 3 10 13 7 6 7 7 8 7 12 11 13 14 13 15 15 14 12 12 12 11 11 11 11 13 14 13 12 12 12 13 11 10 12 12
8 5 10 7 5 5 5 12 10 6 1 10 4 5 6 7 7 9 10 12 13 13 14 14 14 13 13 13 13 12 11 10 11 12 13 14 14 13 12 12 11 10 12 13
12 10 5 7 6 7 14 13 10 5 8 3 4 4 6 5 6 8 11 12 12 14 14 13 12 12 12 12 12 13 12 12 11 12 12 12 13 12 12 14 13 12 11 10
7 7 4 8 4 5 16 5 10 4 3 3 4 3 3 5 7 9 10 11 10 11 12 11 11 10 11 11 11 12 13 13 13 13 13 12 12 13 12 12 12 11 11 10
10 6 5 4 11 10 13 10 10 4 5 3 4 3 3 6 7 9 9 10 10 9 9 9 10 11 12 12 12 12 13 14 13 15 15 12 11 12 11 8 8 8 8 9
3 11 11 10 8 4 11 15 13 8 6 5 4 2 3 4 6 7 9 10 9 9 9 8 9 10 13 13 14 14 14 14 14 14 14 13 10 13 10 9 8 9 10 10
9 10 10 6 9 10 1 10 15 12 9 7 6 4 2 4 5 6 7 9 9 10 10 10 10 11 12 13 14 14 14 15 15 15 12 11 10 9 9 9 10 11 16 18
Wind_Direction
34 52 42 25 2 335 310 301 299 305 309 305 294 290 289 285 278 270 270 273 284 277 270 269 269 255 245 223 211 206 205 205 201 202 201 206 207 210 214 217 218 215 213 211
163 52 19 346 339 327 318 306 301 312 320 306 297 293 290 274 269 260 258 267 297 304 294 265 252 225 238 229 215 212 209 202 202 204 206 211 209 214 216 219 221 220 216 214
57 38 350 348 338 341 335 300 307 318 311 292 285 291 330 321 253 239 243 333 300 299 307 297 292 276 221 239 218 216 208 204 202 207 208 208 218 222 216 219 221 219 221 216
52 18 357 348 358 345 323 354 311 304 315 300 338 300 2 27 359 33 7 343 322 338 340 334 330 302 292 253 246 214 216 209 205 200 208 213 213 214 217 216 216 216 213 216
65 4 0 1 348 329 306 315 305 295 293 308 281 249 30 32 354 356 5 4 13 11 10 12 10 359 352 330 287 256 214 212 211 207 213 210 222 231 233 224 221 218 215 215
64 42 9 347 329 284 326 304 278 248 286 271 266 229 42 12 340 3 16 21 24 32 35 38 32 26 27 15 3 305 266 220 210 211 217 218 225 223 223 224 225 235 234 224
139 52 33 340 354 71 345 332 315 316 298 316 13 82 37 338 13 7 17 25 35 37 43 42 42 40 34 32 25 15 342 244 243 211 223 228 234 232 240 240 226 226 214 223
14 144 21 0 11 327 358 352 331 306 349 327 61 2 32 18 25 12 12 20 29 33 36 40 39 38 38 37 36 37 43 37 24 333 240 234 241 238 239 242 250 244 235 229
338 156 276 33 341 8 346 359 333 265 265 286 101 11 269 4 12 8 3 7 12 25 26 25 32 34 32 30 28 32 37 40 43 39 39 35 17 320 272 259 254 252 251 247
88 275 161 2 296 29 3 352 301 284 312 341 79 66 13 352 348 354 1 8 10 17 22 23 24 27 30 31 30 26 29 35 34 36 35 39 35 31 33 34 20 336 284 244
6 252 116 247 30 2 10 26 358 277 353 327 342 53 353 336 345 347 26 12 10 17 7 12 18 26 22 25 26 26 25 22 22 26 29 31 33 30 20 42 32 30 19 16
32 287 283 352 260 333 27 13 22 326 14 28 304 53 347 7 41 351 19 33 45 13 13 10 8 11 29 25 21 21 21 22 16 16 21 19 24 26 20 27 18 15 34 25
78 198 266 171 188 209 298 340 354 191 250 30 323 55 34 44 40 46 23 24 33 38 24 24 14 4 11 23 27 21 16 14 13 13 15 16 11 17 9 15 11 6 15 9
242 232 268 328 346 291 287 340 342 316 288 117 56 104 57 34 26 17 18 17 20 34 20 4 16 11 12 8 17 18 18 13 8 10 11 9 9 7 8 1 357 13 359 353
256 217 222 284 276 256 280 296 321 243 239 300 134 84 43 27 359 1 359 356 2 9 9 8 356 5 359 4 3 10 9 1 1 1 360 3 5 1 360 357 355 353 349 358
201 194 171 254 214 246 254 245 219 122 116 125 171 135 9 346 343 353 346 344 347 356 350 350 349 353 353 2 355 352 353 355 350 349 342 345 351 351 352 350 346 344 343 340
182 171 183 218 244 223 254 216 204 189 216 259 266 32 329 337 343 345 345 355 353 345 350 350 347 348 350 347 344 345 336 336 337 335 332 335 334 335 339 337 340 341 335 330
196 185 169 179 186 225 97 166 199 228 209 214 218 277 327 329 329 323 11 351 345 351 345 345 343 341 340 340 335 329 325 321 325 323 327 333 331 329 327 330 332 334 332 327
215 182 167 216 218 308 211 211 196 201 219 220 239 268 313 324 312 279 23 352 340 339 335 333 331 327 325 333 335 328 325 332 330 339 336 331 322 315 322 319 307 312 308 309
185 243 236 177 242 247 53 165 176 186 260 186 226 275 309 318 301 2 354 338 329 328 329 328 329 328 334 339 335 330 330 328 338 333 329 326 321 319 318 313 308 308 308 308
181 209 218 211 248 270 171 155 157 203 109 154 225 286 295 299 325 324 322 321 324 323 326 329 327 329 336 338 341 331 333 347 339 332 328 325 324 325 320 312 309 314 308 304
181 181 190 207 224 247 165 159 204 112 147 191 247 276 286 297 309 314 318 320 323 326 327 330 326 337 337 339 341 332 335 339 332 323 318 321 321 321 319 319 313 314 309 303
207 207 188 205 218 116 177 206 182 163 199 218 270 286 267 295 317 320 320 324 328 334 326 331 332 331 345 354 340 326 323 322 321 319 316 317 312 307 303 303 305 308 309 305
224 202 227 185 217 197 195 198 188 188 203 213 230 219 266 311 322 318 320 323 327 332 318 327 327 340 330 332 329 325 326 322 319 318 319 313 303 306 295 295 293 293 289 288
212 169 218 229 231 198 219 213 210 202 194 192 180 209 297 308 309 314 320 322 324 321 318 321 327 321 321 326 325 327 327 323 320 317 314 316 312 310 305 296 292 289 283 282
198 212 205 218 220 211 193 208 208 202 197 189 189 201 228 286 304 324 331 324 316 315 314 314 312 313 315 317 318 322 326 325 321 316 316 311 310 307 300 297 297 268 258 261